Overview Statistics Trail Chart Weather Telemetry Raw packets
 

This is the latest recevied weather packets stored in our database for station/object EA1HEH-13. If no packets are shown the sender has not sent any weather packets the latest 10 day(s).

<< 1 2 3 4 >>
Time Temp. Humidity Pressure Rain* Wind** Luminosity Snow
1788626690 28.33° C 18% 943 hPa - - - -
1788626090 28.33° C 19% 942.9 hPa - - - -
1788625490 28.33° C 19% 942.6 hPa - - - -
1788624890 28.33° C 20% 942.6 hPa - - - -
1788624290 27.78° C 20% 943.5 hPa - - - -
1788623690 28.33° C 19% 944.4 hPa - - - -
1788623090 28.89° C 17% 943.6 hPa - - - -
1788622490 28.89° C 17% 943.4 hPa - - - -
1788621890 29.44° C 17% 943.5 hPa - - - -
1788621290 29.44° C 18% 943.3 hPa - - - -
1788620711 30° C 15% 943.4 hPa - - - -
1788620090 30.56° C 16% 943 hPa - - - -
1788619490 30.56° C 16% 942.9 hPa - - - -
1788618890 30° C 17% 942.9 hPa - - - -
1788618290 30.56° C 19% 942.7 hPa - - - -
1788617690 30.56° C 19% 942.7 hPa - - - -
1788617090 30.56° C 19% 942.6 hPa - - - -
1788616490 30.56° C 18% 942.7 hPa - - - -
1788615890 30.56° C 18% 942.5 hPa - - - -
1788615290 30.56° C 17% 942.4 hPa - - - -
1788614690 30.56° C 17% 942.2 hPa - - - -
1788614090 30.56° C 18% 942.3 hPa - - - -
1788613490 30.56° C 18% 942.2 hPa - - - -
1788612890 30.56° C 18% 942.2 hPa - - - -
1788612290 30.56° C 18% 942.1 hPa - - - -

* Rain since midnight (hover to see other rain measurements)
** Current wind speed in m/s (hover to see current wind gust speed)